Location: Aldenham
(51.6667°N, 0.3500°W)
Time: 02:20:18
(UTC+00:00)

Cosmos 468 Rocket - Pass Details

Date: 18 November 2025
Orbit: 740 x 774 km, 74.0° (Epoch: 13 December)

Event Time Altitude Azimuth Distance (km) Brightness Sun altitude
Rises 17:39:19 0° 335° (NNW) 3,239 7.4 -14.0°
Reaches altitude 10° 17:41:42 10° 335° (NNW) 2,304 6.6 -14.4°
Maximum altitude 17:46:57 86° 66° (ENE) 764 3.9 -15.1°
Drops below altitude 10° 17:52:06 10° 155° (SSE) 2,266 6.3 -15.9°
Sets 17:54:26 0° 156° (SSE) 3,181 7.1 -16.3°
